GFSNW_prec_precacc24_048.txt.gz
Total_Precipitation_Accumulation
0.16 0.15 0.23 0.30 0.30 0.29 0.40 0.27 0.16 0.04 0.06 0.27 0.13 0.03 0.00 0.00 0.00 0.00 0.00 0.00 0.00 0.00 0.00 0.00 0.00 0.00 0.00 0.00 0.00 0.00 0.00 0.00 0.01 0.00 0.00 0.00 0.00 0.00 0.01 0.00 0.00 0.00 0.00 0.00
0.24 0.24 0.31 0.39 0.42 0.37 0.31 0.31 0.26 0.37 0.11 0.10 0.05 0.00 0.00 0.00 0.00 0.00 0.00 0.00 0.00 0.00 0.00 0.00 0.00 0.00 0.00 0.00 0.00 0.00 0.00 0.00 0.00 0.00 0.00 0.01 0.00 0.00 0.00 0.00 0.00 0.00 0.00 0.00
0.36 0.33 0.38 0.41 0.47 0.45 0.30 0.31 0.36 0.70 0.36 0.00 0.00 0.00 0.00 0.00 0.00 0.00 0.00 0.00 0.00 0.00 0.00 0.00 0.00 0.00 0.00 0.00 0.00 0.00 0.00 0.00 0.00 0.00 0.00 0.00 0.00 0.00 0.00 0.00 0.00 0.00 0.00 0.00
0.44 0.49 0.45 0.42 0.49 0.56 0.62 0.48 0.15 0.15 0.14 0.01 0.00 0.00 0.00 0.00 0.00 0.00 0.00 0.00 0.00 0.00 0.00 0.00 0.00 0.00 0.00 0.00 0.00 0.00 0.00 0.00 0.00 0.00 0.00 0.00 0.00 0.00 0.00 0.00 0.00 0.00 0.00 0.00
0.53 0.63 0.56 0.48 0.54 0.85 1.10 0.45 0.05 0.04 0.02 0.00 0.01 0.01 0.00 0.00 0.00 0.00 0.00 0.00 0.00 0.00 0.00 0.00 0.00 0.00 0.00 0.00 0.00 0.00 0.00 0.00 0.00 0.00 0.00 0.00 0.00 0.00 0.00 0.00 0.00 0.00 0.00 0.00
0.56 0.62 0.61 0.55 0.60 1.33 1.60 0.34 0.02 0.09 0.06 0.02 0.01 0.00 0.00 0.00 0.00 0.00 0.00 0.00 0.00 0.00 0.00 0.01 0.00 0.00 0.00 0.00 0.00 0.00 0.00 0.00 0.00 0.00 0.00 0.00 0.00 0.00 0.00 0.00 0.00 0.00 0.00 0.00
0.57 0.56 0.52 0.60 0.64 1.04 0.86 0.21 0.09 0.28 0.15 0.07 0.00 0.00 0.00 0.00 0.00 0.00 0.00 0.00 0.00 0.00 0.00 0.01 0.01 0.00 0.00 0.01 0.01 0.00 0.00 0.00 0.00 0.00 0.00 0.00 0.00 0.00 0.00 0.00 0.00 0.00 0.00 0.00
0.56 0.53 0.48 0.52 0.50 0.47 0.47 0.18 0.20 0.38 0.24 0.05 0.02 0.00 0.00 0.01 0.00 0.00 0.00 0.00 0.00 0.01 0.01 0.03 0.03 0.03 0.03 0.01 0.01 0.01 0.01 0.00 0.00 0.00 0.00 0.00 0.00 0.00 0.00 0.00 0.00 0.00 0.00 0.00
0.51 0.51 0.47 0.45 0.35 0.23 0.34 0.29 0.39 0.56 0.42 0.07 0.03 0.03 0.00 0.01 0.02 0.03 0.04 0.03 0.01 0.01 0.05 0.03 0.02 0.02 0.02 0.00 0.00 0.00 0.00 0.01 0.00 0.00 0.00 0.00 0.00 0.00 0.00 0.00 0.00 0.00 0.00 0.00
0.51 0.45 0.41 0.36 0.25 0.14 0.29 0.39 0.72 0.79 0.56 0.20 0.11 0.06 0.02 0.01 0.03 0.03 0.04 0.07 0.06 0.03 0.07 0.04 0.01 0.01 0.02 0.01 0.00 0.00 0.00 0.00 0.00 0.00 0.00 0.00 0.00 0.00 0.00 0.00 0.00 0.00 0.00 0.00
0.53 0.39 0.36 0.31 0.20 0.15 0.29 0.38 0.70 0.84 0.53 0.23 0.23 0.16 0.11 0.03 0.03 0.02 0.01 0.10 0.07 0.10 0.10 0.04 0.02 0.01 0.00 0.01 0.00 0.01 0.00 0.00 0.00 0.00 0.00 0.00 0.00 0.00 0.00 0.00 0.00 0.00 0.00 0.00
0.52 0.38 0.33 0.26 0.20 0.16 0.29 0.36 0.52 0.77 0.74 0.42 0.28 0.12 0.08 0.02 0.00 0.01 0.01 0.02 0.01 0.02 0.04 0.02 0.04 0.01 0.00 0.00 0.00 0.00 0.00 0.00 0.00 0.00 0.00 0.00 0.00 0.00 0.00 0.00 0.00 0.00 0.00 0.00
0.47 0.38 0.33 0.27 0.24 0.25 0.29 0.31 0.41 1.24 0.96 0.48 0.24 0.18 0.14 0.09 0.02 0.02 0.03 0.00 0.01 0.03 0.03 0.05 0.04 0.02 0.00 0.00 0.00 0.00 0.00 0.00 0.00 0.00 0.00 0.00 0.00 0.00 0.00 0.00 0.00 0.00 0.00 0.00
0.48 0.41 0.36 0.30 0.30 0.38 0.35 0.27 0.71 1.61 1.22 0.92 0.44 0.19 0.16 0.14 0.09 0.01 0.01 0.02 0.03 0.06 0.06 0.07 0.06 0.03 0.01 0.00 0.00 0.00 0.00 0.01 0.01 0.00 0.00 0.00 0.00 0.00 0.00 0.00 0.00 0.00 0.00 0.00
0.48 0.40 0.31 0.30 0.33 0.34 0.35 0.30 0.83 1.15 1.10 1.03 0.71 0.19 0.20 0.30 0.21 0.14 0.03 0.01 0.00 0.03 0.11 0.07 0.03 0.02 0.02 0.01 0.01 0.00 0.00 0.00 0.00 0.00 0.01 0.00 0.00 0.00 0.00 0.00 0.00 0.00 0.00 0.00
0.38 0.27 0.24 0.21 0.25 0.46 0.51 0.85 0.71 0.85 0.77 1.08 0.83 0.49 0.14 0.28 0.31 0.47 0.20 0.08 0.05 0.05 0.07 0.06 0.02 0.01 0.02 0.01 0.00 0.00 0.00 0.00 0.01 0.00 0.01 0.00 0.00 0.00 0.00 0.00 0.00 0.00 0.00 0.00
0.29 0.23 0.17 0.18 0.29 0.58 0.64 0.89 0.66 0.53 0.78 0.95 0.78 0.57 0.32 0.31 0.45 0.46 0.47 0.29 0.31 0.17 0.09 0.04 0.03 0.02 0.01 0.01 0.01 0.00 0.00 0.00 0.01 0.01 0.00 0.00 0.00 0.00 0.00 0.00 0.00 0.00 0.00 0.00
0.26 0.23 0.17 0.23 0.44 0.79 0.48 0.60 0.54 0.66 0.80 0.74 0.67 0.47 0.47 0.30 0.65 0.36 0.38 0.31 0.39 0.44 0.20 0.04 0.01 0.03 0.02 0.02 0.00 0.00 0.00 0.00 0.00 0.00 0.00 0.00 0.00 0.00 0.00 0.00 0.00 0.00 0.00 0.00
0.30 0.31 0.42 0.72 0.99 0.99 0.64 0.68 0.87 0.81 0.71 0.73 0.37 0.32 0.37 0.38 0.58 0.75 0.40 0.32 0.34 0.29 0.33 0.29 0.14 0.03 0.02 0.01 0.00 0.00 0.00 0.00 0.00 0.00 0.00 0.00 0.00 0.00 0.00 0.00 0.00 0.00 0.00 0.00
0.34 0.52 0.89 1.14 0.94 0.78 1.00 1.05 1.04 0.85 0.46 0.33 0.33 0.24 0.17 0.39 0.39 0.64 0.89 0.67 0.30 0.18 0.21 0.25 0.29 0.21 0.09 0.02 0.00 0.00 0.00 0.00 0.01 0.01 0.01 0.01 0.01 0.01 0.01 0.01 0.01 0.02 0.02 0.03
0.55 0.85 1.02 0.92 0.87 0.83 0.90 0.87 0.86 0.61 0.35 0.11 0.12 0.12 0.20 0.17 0.47 0.46 0.40 0.61 0.84 0.35 0.16 0.19 0.24 0.18 0.09 0.05 0.04 0.05 0.06 0.06 0.05 0.04 0.02 0.02 0.02 0.02 0.02 0.03 0.05 0.07 0.10 0.12
0.74 0.78 0.84 0.92 0.69 0.55 0.43 0.52 0.48 0.30 0.14 0.10 0.09 0.09 0.14 0.13 0.20 0.47 0.40 0.26 0.35 0.49 0.27 0.18 0.12 0.08 0.09 0.18 0.20 0.18 0.15 0.13 0.11 0.09 0.07 0.06 0.06 0.06 0.06 0.07 0.09 0.12 0.16 0.20
0.86 0.64 0.68 0.68 0.38 0.31 0.25 0.22 0.17 0.24 0.20 0.12 0.12 0.08 0.06 0.06 0.08 0.19 0.32 0.35 0.20 0.13 0.24 0.37 0.25 0.17 0.15 0.15 0.13 0.11 0.10 0.09 0.08 0.06 0.04 0.03 0.05 0.09 0.11 0.17 0.24 0.27 0.27 0.26
0.77 0.60 0.39 0.50 0.34 0.18 0.16 0.11 0.08 0.18 0.21 0.12 0.13 0.10 0.10 0.09 0.11 0.07 0.09 0.16 0.15 0.16 0.18 0.16 0.17 0.23 0.22 0.22 0.22 0.21 0.22 0.22 0.21 0.18 0.16 0.18 0.18 0.21 0.26 0.24 0.21 0.16 0.14 0.13
0.49 0.29 0.38 0.31 0.31 0.30 0.29 0.19 0.16 0.21 0.38 0.24 0.20 0.17 0.07 0.08 0.14 0.12 0.05 0.06 0.09 0.09 0.12 0.12 0.12 0.14 0.14 0.14 0.16 0.16 0.19 0.22 0.24 0.26 0.23 0.21 0.20 0.16 0.16 0.15 0.12 0.09 0.07 0.05
0.17 0.35 0.50 0.41 0.43 0.41 0.35 0.30 0.30 0.28 0.35 0.26 0.12 0.10 0.04 0.13 0.06 0.04 0.07 0.06 0.10 0.11 0.13 0.15 0.16 0.16 0.17 0.19 0.22 0.25 0.27 0.24 0.20 0.17 0.15 0.13 0.12 0.08 0.05 0.04 0.02 0.02 0.01 0.01
0.30 0.62 0.72 0.62 0.51 0.50 0.46 0.39 0.34 0.26 0.19 0.11 0.03 0.06 0.11 0.12 0.09 0.12 0.14 0.20 0.23 0.25 0.25 0.26 0.24 0.23 0.23 0.25 0.31 0.32 0.26 0.17 0.12 0.12 0.10 0.06 0.03 0.01 0.00 0.00 0.00 0.00 0.01 0.01

GFSNW_prec_precacc24_051.txt.gz
Total_Precipitation_Accumulation
0.18 0.16 0.19 0.24 0.25 0.32 0.47 0.32 0.18 0.05 0.12 0.33 0.15 0.05 0.00 0.00 0.00 0.00 0.00 0.00 0.00 0.00 0.00 0.00 0.00 0.00 0.00 0.00 0.00 0.00 0.00 0.00 0.01 0.00 0.00 0.00 0.00 0.00 0.01 0.00 0.00 0.00 0.00 0.00
0.26 0.21 0.21 0.28 0.36 0.45 0.44 0.37 0.26 0.43 0.15 0.13 0.06 0.01 0.00 0.00 0.00 0.00 0.00 0.00 0.00 0.00 0.00 0.00 0.00 0.00 0.00 0.00 0.00 0.00 0.00 0.00 0.00 0.00 0.00 0.01 0.00 0.00 0.00 0.00 0.00 0.00 0.00 0.00
0.37 0.30 0.25 0.28 0.44 0.55 0.42 0.38 0.42 0.82 0.44 0.01 0.00 0.00 0.00 0.00 0.00 0.00 0.00 0.00 0.00 0.00 0.00 0.00 0.00 0.00 0.00 0.00 0.00 0.00 0.00 0.00 0.00 0.00 0.00 0.00 0.00 0.00 0.00 0.00 0.00 0.00 0.00 0.00
0.40 0.42 0.33 0.32 0.54 0.73 0.84 0.66 0.22 0.25 0.21 0.03 0.00 0.00 0.00 0.00 0.00 0.00 0.00 0.01 0.00 0.00 0.00 0.00 0.00 0.00 0.00 0.00 0.00 0.00 0.00 0.00 0.00 0.00 0.00 0.00 0.00 0.00 0.00 0.00 0.00 0.00 0.00 0.00
0.36 0.42 0.48 0.41 0.61 1.08 1.50 0.71 0.09 0.05 0.03 0.01 0.01 0.01 0.00 0.00 0.00 0.00 0.00 0.01 0.00 0.00 0.00 0.00 0.00 0.00 0.00 0.00 0.00 0.00 0.00 0.00 0.00 0.00 0.00 0.00 0.00 0.00 0.00 0.00 0.00 0.00 0.00 0.00
0.39 0.41 0.45 0.54 0.66 1.59 2.33 0.61 0.03 0.11 0.07 0.03 0.02 0.01 0.00 0.00 0.00 0.00 0.00 0.00 0.00 0.00 0.00 0.02 0.00 0.00 0.00 0.00 0.00 0.00 0.00 0.00 0.00 0.00 0.00 0.00 0.00 0.00 0.00 0.00 0.00 0.00 0.00 0.00
0.45 0.41 0.41 0.56 0.75 1.21 1.34 0.40 0.10 0.30 0.16 0.11 0.01 0.00 0.00 0.00 0.00 0.00 0.00 0.00 0.00 0.00 0.00 0.01 0.01 0.01 0.00 0.01 0.01 0.00 0.00 0.00 0.00 0.00 0.00 0.00 0.00 0.00 0.00 0.00 0.00 0.00 0.00 0.00
0.56 0.42 0.45 0.52 0.64 0.60 0.60 0.19 0.21 0.40 0.26 0.06 0.02 0.00 0.00 0.01 0.00 0.00 0.00 0.00 0.00 0.01 0.01 0.03 0.03 0.03 0.04 0.01 0.01 0.01 0.01 0.01 0.00 0.00 0.00 0.00 0.00 0.00 0.00 0.00 0.00 0.00 0.00 0.00
0.57 0.53 0.50 0.48 0.45 0.39 0.37 0.29 0.40 0.59 0.44 0.08 0.03 0.03 0.01 0.01 0.04 0.05 0.04 0.03 0.01 0.01 0.05 0.03 0.02 0.02 0.03 0.01 0.03 0.00 0.00 0.01 0.03 0.01 0.00 0.00 0.00 0.00 0.00 0.00 0.00 0.00 0.00 0.00
0.57 0.53 0.46 0.41 0.33 0.33 0.31 0.41 0.73 0.82 0.59 0.20 0.12 0.08 0.04 0.02 0.05 0.07 0.06 0.08 0.09 0.04 0.07 0.04 0.01 0.01 0.02 0.02 0.02 0.02 0.00 0.00 0.01 0.01 0.00 0.00 0.00 0.00 0.00 0.00 0.00 0.00 0.00 0.00
0.57 0.50 0.42 0.35 0.29 0.35 0.31 0.40 0.72 0.87 0.57 0.28 0.28 0.19 0.14 0.04 0.06 0.06 0.03 0.16 0.12 0.11 0.10 0.04 0.02 0.01 0.00 0.01 0.00 0.01 0.01 0.01 0.01 0.01 0.02 0.00 0.00 0.00 0.00 0.00 0.00 0.00 0.00 0.00
0.56 0.45 0.37 0.31 0.32 0.38 0.27 0.38 0.56 0.81 0.80 0.47 0.29 0.15 0.12 0.04 0.00 0.01 0.02 0.05 0.02 0.02 0.04 0.02 0.04 0.02 0.01 0.00 0.00 0.00 0.00 0.02 0.03 0.01 0.00 0.00 0.00 0.00 0.00 0.00 0.00 0.00 0.00 0.00
0.50 0.42 0.36 0.36 0.45 0.42 0.28 0.33 0.44 1.29 1.04 0.50 0.26 0.19 0.15 0.12 0.02 0.02 0.08 0.02 0.01 0.03 0.03 0.05 0.04 0.02 0.00 0.00 0.00 0.00 0.00 0.00 0.00 0.00 0.00 0.00 0.00 0.00 0.00 0.00 0.00 0.00 0.00 0.00
0.50 0.44 0.43 0.49 0.53 0.47 0.31 0.27 0.72 1.63 1.25 0.92 0.45 0.20 0.16 0.15 0.10 0.01 0.04 0.04 0.03 0.06 0.06 0.07 0.06 0.03 0.01 0.00 0.00 0.00 0.00 0.01 0.01 0.00 0.00 0.00 0.00 0.00 0.00 0.00 0.00 0.00 0.00 0.00
0.54 0.50 0.49 0.59 0.55 0.39 0.35 0.32 0.84 1.16 1.09 1.03 0.72 0.20 0.21 0.30 0.24 0.16 0.05 0.04 0.03 0.04 0.11 0.07 0.02 0.02 0.02 0.01 0.01 0.00 0.00 0.00 0.00 0.00 0.01 0.00 0.00 0.00 0.00 0.00 0.00 0.00 0.00 0.00
0.50 0.49 0.52 0.47 0.31 0.46 0.53 0.90 0.74 0.85 0.77 1.06 0.83 0.50 0.14 0.30 0.35 0.50 0.24 0.11 0.08 0.07 0.08 0.07 0.02 0.01 0.02 0.01 0.00 0.00 0.00 0.00 0.01 0.00 0.01 0.00 0.00 0.00 0.00 0.00 0.00 0.00 0.00 0.00
0.43 0.40 0.29 0.21 0.28 0.59 0.65 0.91 0.66 0.53 0.78 0.94 0.79 0.59 0.33 0.32 0.56 0.53 0.53 0.33 0.34 0.20 0.14 0.06 0.04 0.03 0.01 0.01 0.00 0.00 0.00 0.00 0.01 0.01 0.00 0.00 0.00 0.00 0.00 0.00 0.00 0.00 0.00 0.00
0.29 0.26 0.19 0.24 0.46 0.78 0.48 0.60 0.54 0.66 0.81 0.74 0.71 0.52 0.55 0.37 0.85 0.59 0.49 0.42 0.47 0.50 0.23 0.06 0.03 0.05 0.05 0.03 0.00 0.00 0.00 0.00 0.00 0.00 0.00 0.00 0.00 0.00 0.00 0.00 0.00 0.00 0.00 0.00
0.29 0.29 0.39 0.69 0.97 0.97 0.65 0.68 0.87 0.83 0.72 0.74 0.38 0.37 0.51 0.52 0.84 1.03 0.51 0.41 0.42 0.36 0.38 0.32 0.17 0.05 0.05 0.01 0.00 0.00 0.00 0.00 0.00 0.00 0.00 0.00 0.00 0.00 0.00 0.00 0.00 0.00 0.00 0.00
0.32 0.50 0.88 1.12 0.93 0.78 1.01 1.06 1.05 0.88 0.49 0.34 0.33 0.24 0.23 0.48 0.49 0.75 0.97 0.72 0.34 0.25 0.24 0.29 0.35 0.24 0.10 0.02 0.00 0.00 0.00 0.00 0.01 0.01 0.01 0.01 0.01 0.01 0.01 0.01 0.01 0.02 0.02 0.03
0.54 0.85 1.02 0.93 0.89 0.89 0.98 0.95 0.90 0.62 0.37 0.12 0.13 0.12 0.21 0.19 0.53 0.51 0.44 0.67 0.86 0.37 0.17 0.22 0.25 0.19 0.10 0.05 0.04 0.05 0.06 0.06 0.05 0.04 0.02 0.02 0.02 0.02 0.02 0.03 0.05 0.07 0.10 0.12
0.75 0.79 0.84 0.93 0.71 0.59 0.45 0.53 0.49 0.31 0.16 0.12 0.11 0.11 0.14 0.16 0.39 0.58 0.43 0.29 0.38 0.64 0.40 0.26 0.17 0.12 0.11 0.18 0.20 0.18 0.15 0.13 0.11 0.10 0.07 0.06 0.06 0.06 0.06 0.07 0.09 0.13 0.18 0.25
0.88 0.66 0.69 0.69 0.39 0.31 0.26 0.23 0.18 0.27 0.37 0.27 0.16 0.11 0.08 0.08 0.22 0.32 0.36 0.35 0.20 0.25 0.43 0.50 0.33 0.20 0.16 0.17 0.16 0.15 0.14 0.12 0.10 0.07 0.05 0.04 0.06 0.10 0.13 0.19 0.29 0.33 0.38 0.41
0.86 0.62 0.38 0.50 0.34 0.20 0.17 0.13 0.12 0.26 0.36 0.31 0.22 0.15 0.15 0.14 0.24 0.21 0.15 0.20 0.16 0.19 0.22 0.21 0.21 0.28 0.26 0.25 0.28 0.30 0.35 0.38 0.38 0.38 0.35 0.36 0.36 0.37 0.39 0.35 0.34 0.28 0.27 0.29
0.49 0.28 0.37 0.31 0.34 0.31 0.30 0.20 0.17 0.26 0.54 0.46 0.36 0.33 0.27 0.19 0.26 0.17 0.10 0.09 0.10 0.11 0.14 0.15 0.16 0.19 0.18 0.18 0.20 0.21 0.26 0.31 0.34 0.36 0.34 0.34 0.36 0.33 0.34 0.30 0.24 0.17 0.16 0.14
0.16 0.35 0.51 0.42 0.44 0.42 0.36 0.31 0.32 0.35 0.48 0.45 0.31 0.27 0.23 0.21 0.09 0.05 0.08 0.06 0.10 0.14 0.16 0.19 0.22 0.22 0.21 0.24 0.27 0.31 0.33 0.30 0.24 0.22 0.20 0.19 0.19 0.14 0.13 0.13 0.11 0.10 0.07 0.07
0.29 0.62 0.74 0.63 0.52 0.52 0.50 0.46 0.45 0.42 0.36 0.26 0.12 0.09 0.15 0.15 0.10 0.12 0.14 0.21 0.26 0.28 0.28 0.30 0.30 0.31 0.31 0.33 0.37 0.38 0.31 0.21 0.17 0.16 0.15 0.12 0.09 0.05 0.03 0.03 0.04 0.03 0.03 0.03

GFSNW_prec_precacc24_057.txt.gz
Total_Precipitation_Accumulation
0.17 0.14 0.18 0.26 0.29 0.28 0.50 0.51 0.34 0.08 0.16 0.44 0.23 0.05 0.00 0.00 0.00 0.00 0.00 0.00 0.00 0.00 0.00 0.00 0.01 0.01 0.00 0.00 0.00 0.00 0.00 0.00 0.00 0.00 0.00 0.00 0.00 0.00 0.00 0.01 0.00 0.01 0.01 0.00
0.26 0.27 0.25 0.30 0.37 0.46 0.65 0.76 0.37 0.41 0.22 0.24 0.09 0.01 0.00 0.00 0.00 0.00 0.00 0.00 0.00 0.00 0.00 0.00 0.00 0.00 0.00 0.00 0.00 0.00 0.00 0.00 0.00 0.00 0.00 0.01 0.00 0.00 0.00 0.00 0.00 0.01 0.03 0.00
0.31 0.28 0.30 0.36 0.49 0.61 0.71 0.91 0.72 0.83 0.55 0.04 0.01 0.00 0.00 0.00 0.00 0.00 0.00 0.00 0.00 0.00 0.02 0.00 0.00 0.00 0.00 0.00 0.00 0.00 0.00 0.00 0.00 0.00 0.00 0.00 0.00 0.00 0.00 0.00 0.00 0.00 0.00 0.00
0.36 0.38 0.30 0.32 0.60 0.87 1.21 1.52 0.61 0.32 0.34 0.09 0.00 0.00 0.00 0.00 0.00 0.00 0.00 0.01 0.01 0.00 0.02 0.02 0.02 0.02 0.02 0.01 0.00 0.00 0.00 0.00 0.00 0.00 0.00 0.00 0.00 0.00 0.00 0.00 0.00 0.00 0.00 0.00
0.34 0.38 0.42 0.36 0.55 1.23 2.10 1.71 0.35 0.06 0.02 0.01 0.02 0.02 0.01 0.00 0.00 0.00 0.00 0.01 0.00 0.00 0.00 0.01 0.03 0.08 0.07 0.09 0.01 0.00 0.00 0.00 0.00 0.00 0.00 0.00 0.00 0.00 0.00 0.00 0.00 0.00 0.00 0.00
0.36 0.40 0.42 0.47 0.48 1.49 3.28 1.82 0.24 0.09 0.06 0.06 0.05 0.02 0.00 0.00 0.00 0.00 0.00 0.00 0.00 0.01 0.01 0.07 0.09 0.07 0.07 0.10 0.06 0.01 0.00 0.00 0.00 0.00 0.00 0.00 0.00 0.00 0.00 0.00 0.00 0.00 0.00 0.00
0.42 0.41 0.39 0.48 0.54 1.03 2.00 1.40 0.25 0.37 0.31 0.15 0.03 0.00 0.00 0.00 0.00 0.00 0.00 0.00 0.00 0.00 0.01 0.07 0.23 0.21 0.09 0.10 0.10 0.12 0.04 0.00 0.00 0.00 0.00 0.01 0.00 0.00 0.00 0.00 0.00 0.00 0.00 0.00
0.49 0.42 0.42 0.41 0.51 0.57 0.82 0.58 0.33 0.38 0.37 0.09 0.03 0.01 0.00 0.01 0.01 0.00 0.00 0.00 0.00 0.01 0.00 0.11 0.19 0.23 0.23 0.11 0.16 0.16 0.06 0.03 0.05 0.02 0.01 0.00 0.00 0.00 0.00 0.00 0.00 0.00 0.00 0.00
0.47 0.49 0.45 0.41 0.41 0.51 0.55 0.36 0.41 0.57 0.48 0.17 0.03 0.04 0.02 0.03 0.05 0.05 0.00 0.00 0.00 0.01 0.06 0.13 0.11 0.12 0.12 0.12 0.14 0.17 0.23 0.09 0.09 0.07 0.01 0.00 0.00 0.00 0.00 0.00 0.00 0.00 0.00 0.00
0.47 0.47 0.50 0.41 0.35 0.54 0.51 0.37 0.46 0.63 0.83 0.27 0.14 0.12 0.05 0.02 0.05 0.07 0.02 0.03 0.10 0.06 0.08 0.07 0.06 0.05 0.02 0.03 0.04 0.09 0.19 0.13 0.04 0.06 0.09 0.00 0.00 0.00 0.00 0.00 0.00 0.00 0.00 0.00
0.52 0.46 0.51 0.45 0.40 0.55 0.61 0.33 0.51 0.60 0.74 0.40 0.34 0.28 0.23 0.05 0.08 0.08 0.03 0.18 0.23 0.27 0.16 0.05 0.02 0.02 0.01 0.01 0.00 0.02 0.06 0.09 0.07 0.06 0.07 0.01 0.00 0.00 0.00 0.00 0.00 0.00 0.00 0.00
0.50 0.46 0.45 0.47 0.44 0.56 0.61 0.39 0.49 0.60 0.61 0.55 0.42 0.24 0.25 0.09 0.01 0.04 0.03 0.08 0.09 0.12 0.18 0.04 0.04 0.02 0.01 0.00 0.00 0.00 0.02 0.04 0.07 0.04 0.01 0.01 0.01 0.00 0.00 0.00 0.00 0.00 0.00 0.00
0.47 0.45 0.43 0.52 0.57 0.63 0.62 0.44 0.37 0.72 0.75 0.45 0.26 0.33 0.22 0.17 0.03 0.04 0.16 0.06 0.02 0.07 0.06 0.11 0.08 0.04 0.00 0.00 0.00 0.00 0.00 0.00 0.01 0.03 0.01 0.01 0.02 0.04 0.01 0.00 0.00 0.00 0.00 0.00
0.52 0.45 0.51 0.72 0.74 0.75 0.52 0.34 0.35 0.49 0.56 0.58 0.38 0.22 0.18 0.17 0.12 0.03 0.13 0.09 0.06 0.12 0.14 0.15 0.19 0.09 0.01 0.00 0.00 0.00 0.00 0.01 0.01 0.02 0.00 0.00 0.00 0.04 0.07 0.05 0.02 0.00 0.00 0.00
0.52 0.50 0.64 0.92 0.86 0.64 0.40 0.27 0.36 0.35 0.54 0.61 0.65 0.21 0.22 0.30 0.26 0.19 0.12 0.14 0.16 0.25 0.54 0.25 0.07 0.04 0.03 0.02 0.02 0.00 0.00 0.00 0.00 0.01 0.01 0.01 0.00 0.00 0.00 0.01 0.02 0.01 0.00 0.00
0.47 0.56 0.81 0.75 0.57 0.47 0.47 0.75 0.60 0.39 0.51 0.93 0.81 0.51 0.13 0.30 0.36 0.53 0.27 0.18 0.26 0.24 0.38 0.39 0.11 0.02 0.04 0.02 0.00 0.00 0.00 0.00 0.01 0.00 0.01 0.00 0.00 0.00 0.00 0.00 0.00 0.00 0.00 0.00
0.53 0.53 0.47 0.41 0.33 0.26 0.29 0.47 0.51 0.37 0.67 0.88 0.77 0.58 0.33 0.32 0.56 0.55 0.54 0.36 0.47 0.36 0.38 0.31 0.21 0.07 0.07 0.02 0.00 0.00 0.00 0.00 0.01 0.01 0.00 0.00 0.00 0.00 0.00 0.00 0.00 0.00 0.00 0.00
0.39 0.40 0.37 0.33 0.33 0.22 0.25 0.42 0.49 0.62 0.78 0.70 0.66 0.51 0.60 0.39 0.85 0.58 0.48 0.45 0.59 0.67 0.52 0.25 0.15 0.16 0.18 0.08 0.00 0.00 0.00 0.00 0.00 0.00 0.00 0.00 0.00 0.00 0.00 0.00 0.00 0.00 0.00 0.00
0.34 0.34 0.38 0.55 0.58 0.38 0.56 0.65 0.87 0.86 0.76 0.74 0.37 0.39 0.61 0.58 0.86 1.04 0.56 0.48 0.55 0.52 0.57 0.50 0.32 0.18 0.19 0.05 0.00 0.00 0.00 0.00 0.00 0.00 0.00 0.00 0.00 0.00 0.00 0.00 0.00 0.00 0.00 0.00
0.30 0.46 0.76 0.86 0.64 0.62 1.01 1.07 1.05 0.91 0.57 0.38 0.33 0.25 0.34 0.85 0.80 0.96 1.12 0.84 0.44 0.32 0.35 0.48 0.67 0.51 0.15 0.03 0.01 0.00 0.00 0.00 0.01 0.01 0.01 0.01 0.01 0.01 0.01 0.01 0.01 0.02 0.02 0.04
0.48 0.75 0.92 0.73 0.72 0.88 1.02 0.95 0.85 0.60 0.37 0.12 0.13 0.12 0.26 0.51 0.95 0.77 0.60 0.74 0.95 0.43 0.22 0.38 0.51 0.38 0.16 0.07 0.05 0.05 0.06 0.06 0.05 0.04 0.02 0.02 0.02 0.02 0.02 0.03 0.05 0.07 0.10 0.12
0.68 0.77 0.78 0.71 0.66 0.62 0.51 0.55 0.50 0.30 0.22 0.13 0.12 0.16 0.23 0.41 0.83 0.99 0.68 0.46 0.51 0.75 0.46 0.46 0.43 0.22 0.14 0.20 0.22 0.19 0.16 0.13 0.12 0.10 0.07 0.06 0.06 0.06 0.06 0.07 0.09 0.13 0.18 0.25
0.90 0.67 0.66 0.60 0.40 0.29 0.32 0.28 0.23 0.31 0.40 0.30 0.19 0.18 0.42 0.36 0.64 1.00 0.76 0.59 0.39 0.55 0.65 0.66 0.47 0.29 0.21 0.21 0.18 0.17 0.15 0.14 0.12 0.08 0.06 0.05 0.07 0.11 0.14 0.21 0.31 0.35 0.42 0.49
0.87 0.62 0.36 0.45 0.32 0.24 0.25 0.19 0.20 0.30 0.39 0.34 0.26 0.18 0.19 0.23 0.60 0.97 0.65 0.55 0.33 0.43 0.45 0.33 0.29 0.38 0.36 0.34 0.35 0.36 0.42 0.44 0.45 0.46 0.43 0.46 0.49 0.53 0.56 0.53 0.53 0.45 0.47 0.54
0.48 0.26 0.34 0.30 0.39 0.33 0.31 0.22 0.24 0.34 0.60 0.53 0.46 0.40 0.30 0.27 0.46 0.51 0.38 0.23 0.18 0.16 0.24 0.30 0.32 0.35 0.32 0.33 0.35 0.35 0.38 0.42 0.45 0.47 0.44 0.47 0.50 0.44 0.49 0.49 0.43 0.32 0.31 0.30
0.08 0.30 0.47 0.39 0.44 0.41 0.36 0.32 0.34 0.38 0.54 0.59 0.47 0.37 0.29 0.27 0.18 0.15 0.20 0.09 0.14 0.22 0.28 0.34 0.39 0.40 0.40 0.43 0.45 0.48 0.49 0.43 0.36 0.34 0.31 0.30 0.29 0.23 0.24 0.25 0.23 0.23 0.18 0.19
0.18 0.50 0.64 0.57 0.47 0.48 0.53 0.52 0.48 0.46 0.42 0.36 0.19 0.16 0.25 0.23 0.10 0.15 0.19 0.28 0.35 0.37 0.37 0.42 0.43 0.43 0.46 0.48 0.50 0.51 0.42 0.30 0.25 0.24 0.21 0.20 0.17 0.11 0.06 0.09 0.14 0.11 0.11 0.10

GFSNW_prec_precacc24_063.txt.gz
Total_Precipitation_Accumulation
0.13 0.12 0.17 0.24 0.28 0.33 0.78 1.10 0.66 0.10 0.16 0.49 0.24 0.05 0.00 0.00 0.00 0.00 0.00 0.00 0.00 0.00 0.00 0.00 0.01 0.01 0.00 0.00 0.00 0.00 0.00 0.00 0.00 0.00 0.00 0.00 0.00 0.00 0.00 0.01 0.00 0.01 0.01 0.00
0.20 0.22 0.25 0.31 0.37 0.59 1.12 1.47 0.67 0.48 0.21 0.26 0.10 0.01 0.00 0.00 0.00 0.00 0.00 0.00 0.00 0.00 0.00 0.00 0.00 0.00 0.00 0.00 0.00 0.00 0.00 0.00 0.00 0.00 0.00 0.00 0.00 0.00 0.00 0.00 0.00 0.01 0.03 0.00
0.26 0.23 0.29 0.39 0.50 0.72 1.28 1.74 1.06 1.09 0.62 0.04 0.01 0.00 0.00 0.00 0.00 0.00 0.00 0.00 0.00 0.00 0.02 0.00 0.00 0.00 0.00 0.00 0.00 0.00 0.00 0.00 0.00 0.00 0.00 0.00 0.00 0.00 0.00 0.00 0.00 0.00 0.00 0.00
0.31 0.35 0.30 0.36 0.63 0.93 1.91 2.60 0.92 0.40 0.48 0.13 0.00 0.00 0.00 0.00 0.00 0.00 0.00 0.01 0.01 0.00 0.02 0.02 0.02 0.02 0.02 0.02 0.01 0.00 0.04 0.02 0.00 0.00 0.00 0.00 0.00 0.00 0.00 0.00 0.00 0.00 0.00 0.00
0.35 0.39 0.44 0.40 0.56 1.24 2.84 2.71 0.51 0.07 0.02 0.02 0.03 0.03 0.01 0.00 0.00 0.00 0.00 0.01 0.00 0.00 0.00 0.01 0.03 0.08 0.07 0.10 0.05 0.02 0.05 0.05 0.01 0.00 0.00 0.00 0.00 0.00 0.00 0.00 0.00 0.00 0.00 0.00
0.40 0.45 0.45 0.52 0.50 1.46 3.82 2.54 0.35 0.08 0.07 0.06 0.09 0.03 0.00 0.00 0.00 0.00 0.00 0.00 0.00 0.01 0.01 0.07 0.10 0.07 0.07 0.10 0.11 0.12 0.10 0.12 0.05 0.02 0.00 0.00 0.01 0.00 0.00 0.00 0.00 0.00 0.00 0.00
0.47 0.47 0.45 0.56 0.60 1.04 2.15 1.77 0.38 0.40 0.41 0.15 0.03 0.00 0.00 0.00 0.00 0.00 0.00 0.00 0.00 0.00 0.00 0.07 0.25 0.21 0.09 0.10 0.10 0.17 0.19 0.13 0.17 0.09 0.02 0.08 0.03 0.00 0.00 0.00 0.00 0.00 0.00 0.00
0.54 0.47 0.48 0.51 0.63 0.66 0.86 0.88 0.51 0.44 0.41 0.10 0.02 0.01 0.00 0.01 0.01 0.00 0.00 0.00 0.00 0.00 0.00 0.09 0.17 0.22 0.21 0.11 0.16 0.17 0.16 0.23 0.28 0.13 0.07 0.05 0.00 0.00 0.00 0.00 0.00 0.00 0.00 0.00
0.48 0.51 0.44 0.44 0.54 0.66 0.77 0.67 0.49 0.76 0.63 0.25 0.03 0.03 0.02 0.03 0.04 0.04 0.00 0.00 0.00 0.00 0.01 0.10 0.10 0.12 0.13 0.12 0.14 0.17 0.31 0.30 0.30 0.23 0.11 0.04 0.00 0.00 0.00 0.00 0.00 0.00 0.00 0.00
0.42 0.47 0.47 0.41 0.38 0.66 0.71 0.67 0.38 0.69 1.17 0.31 0.11 0.12 0.05 0.02 0.04 0.06 0.01 0.02 0.06 0.03 0.03 0.05 0.06 0.06 0.03 0.03 0.04 0.09 0.22 0.37 0.32 0.26 0.22 0.04 0.00 0.00 0.00 0.02 0.01 0.00 0.00 0.00
0.38 0.43 0.47 0.45 0.42 0.56 0.69 0.48 0.40 0.47 0.87 0.48 0.29 0.27 0.23 0.05 0.07 0.08 0.02 0.14 0.17 0.18 0.08 0.03 0.02 0.02 0.01 0.01 0.00 0.02 0.06 0.15 0.20 0.27 0.28 0.12 0.04 0.07 0.06 0.02 0.00 0.00 0.00 0.00
0.38 0.39 0.39 0.46 0.46 0.61 0.68 0.50 0.43 0.53 0.66 0.63 0.44 0.26 0.28 0.13 0.03 0.03 0.03 0.07 0.08 0.10 0.15 0.03 0.03 0.02 0.01 0.00 0.00 0.00 0.03 0.04 0.07 0.07 0.06 0.04 0.04 0.09 0.09 0.04 0.02 0.00 0.00 0.00
0.37 0.36 0.37 0.50 0.58 0.67 0.79 0.59 0.42 0.72 0.84 0.39 0.42 0.41 0.22 0.19 0.09 0.07 0.16 0.06 0.02 0.06 0.06 0.09 0.09 0.05 0.00 0.01 0.00 0.00 0.00 0.00 0.01 0.03 0.01 0.01 0.03 0.04 0.02 0.01 0.01 0.01 0.00 0.01
0.40 0.39 0.46 0.69 0.74 0.72 0.79 0.64 0.41 0.42 0.47 0.44 0.23 0.25 0.15 0.14 0.12 0.09 0.16 0.11 0.07 0.16 0.17 0.16 0.21 0.10 0.03 0.01 0.00 0.00 0.00 0.01 0.02 0.02 0.00 0.00 0.00 0.04 0.07 0.05 0.02 0.00 0.01 0.00
0.42 0.45 0.63 0.94 0.84 0.59 0.67 0.61 0.38 0.26 0.26 0.30 0.15 0.09 0.16 0.23 0.19 0.14 0.13 0.18 0.24 0.37 0.60 0.31 0.09 0.04 0.05 0.06 0.05 0.00 0.00 0.01 0.04 0.02 0.03 0.02 0.01 0.00 0.00 0.01 0.02 0.01 0.00 0.00
0.40 0.52 0.85 0.78 0.54 0.50 0.88 1.38 0.89 0.29 0.27 0.41 0.19 0.10 0.06 0.19 0.25 0.28 0.18 0.15 0.26 0.32 0.53 0.50 0.15 0.07 0.10 0.04 0.01 0.02 0.03 0.04 0.04 0.02 0.01 0.01 0.00 0.00 0.00 0.00 0.01 0.01 0.00 0.00
0.49 0.65 0.59 0.48 0.38 0.44 0.51 0.74 0.45 0.19 0.41 0.49 0.33 0.15 0.13 0.28 0.47 0.34 0.26 0.21 0.28 0.33 0.52 0.50 0.33 0.11 0.22 0.15 0.02 0.01 0.03 0.04 0.05 0.03 0.04 0.04 0.03 0.02 0.01 0.00 0.01 0.01 0.00 0.00
0.60 0.71 0.63 0.47 0.41 0.35 0.24 0.16 0.08 0.20 0.53 0.45 0.45 0.21 0.27 0.27 0.71 0.46 0.28 0.34 0.38 0.38 0.47 0.43 0.33 0.31 0.38 0.36 0.07 0.00 0.00 0.01 0.03 0.03 0.03 0.02 0.02 0.02 0.01 0.01 0.01 0.00 0.00 0.00
0.59 0.48 0.41 0.61 0.53 0.34 0.46 0.22 0.16 0.27 0.44 0.43 0.20 0.23 0.34 0.30 0.67 0.84 0.45 0.35 0.48 0.36 0.31 0.30 0.37 0.43 0.76 0.43 0.17 0.05 0.01 0.00 0.00 0.00 0.02 0.04 0.02 0.02 0.02 0.01 0.00 0.00 0.00 0.00
0.20 0.32 0.56 0.65 0.35 0.40 0.52 0.58 0.63 0.67 0.38 0.22 0.21 0.16 0.24 0.56 0.53 0.74 1.04 0.68 0.34 0.21 0.27 0.48 0.58 0.48 0.25 0.08 0.06 0.09 0.08 0.05 0.02 0.00 0.01 0.01 0.02 0.02 0.02 0.01 0.02 0.02 0.02 0.04
0.17 0.31 0.42 0.28 0.29 0.29 0.41 0.49 0.53 0.40 0.29 0.08 0.08 0.07 0.20 0.40 0.74 0.71 0.59 0.78 0.91 0.42 0.23 0.40 0.63 0.58 0.32 0.12 0.05 0.04 0.06 0.08 0.09 0.04 0.02 0.02 0.02 0.03 0.03 0.03 0.05 0.07 0.10 0.12
0.28 0.38 0.32 0.22 0.16 0.16 0.15 0.27 0.34 0.25 0.22 0.13 0.11 0.12 0.19 0.34 0.78 0.98 0.70 0.51 0.53 0.78 0.49 0.48 0.47 0.30 0.19 0.22 0.22 0.19 0.17 0.14 0.12 0.10 0.07 0.06 0.07 0.08 0.08 0.08 0.11 0.15 0.20 0.26
0.67 0.34 0.25 0.15 0.09 0.10 0.19 0.24 0.25 0.36 0.46 0.32 0.20 0.19 0.45 0.42 0.72 1.15 0.82 0.62 0.46 0.62 0.70 0.70 0.52 0.32 0.23 0.23 0.18 0.18 0.17 0.16 0.14 0.12 0.11 0.09 0.12 0.16 0.20 0.28 0.40 0.43 0.49 0.61
0.57 0.31 0.15 0.21 0.21 0.23 0.26 0.21 0.23 0.34 0.41 0.37 0.27 0.21 0.27 0.44 0.86 1.37 0.84 0.66 0.41 0.48 0.51 0.36 0.35 0.43 0.41 0.37 0.38 0.39 0.46 0.49 0.50 0.52 0.49 0.52 0.55 0.61 0.65 0.64 0.67 0.55 0.60 0.72
0.44 0.21 0.27 0.28 0.40 0.33 0.31 0.23 0.25 0.34 0.61 0.54 0.50 0.48 0.37 0.44 0.62 0.69 0.51 0.29 0.20 0.18 0.30 0.36 0.42 0.42 0.37 0.39 0.42 0.42 0.47 0.50 0.53 0.58 0.53 0.58 0.59 0.51 0.59 0.61 0.54 0.40 0.40 0.40
0.07 0.27 0.42 0.36 0.44 0.40 0.34 0.31 0.33 0.38 0.56 0.60 0.51 0.40 0.30 0.35 0.27 0.26 0.32 0.16 0.19 0.28 0.34 0.46 0.50 0.49 0.51 0.57 0.60 0.63 0.63 0.57 0.50 0.47 0.43 0.41 0.38 0.31 0.33 0.33 0.30 0.31 0.24 0.26
0.19 0.46 0.59 0.54 0.45 0.47 0.54 0.53 0.47 0.47 0.42 0.34 0.19 0.14 0.22 0.20 0.09 0.14 0.19 0.33 0.43 0.46 0.47 0.52 0.54 0.56 0.60 0.61 0.61 0.62 0.52 0.39 0.36 0.35 0.31 0.29 0.26 0.16 0.10 0.14 0.21 0.16 0.15 0.14

GFSNW_prec_precacc24_069.txt.gz
Total_Precipitation_Accumulation
0.09 0.09 0.11 0.15 0.20 0.29 0.77 1.31 0.94 0.20 0.15 0.57 0.40 0.09 0.00 0.00 0.00 0.00 0.00 0.00 0.00 0.00 0.00 0.00 0.01 0.01 0.00 0.00 0.00 0.00 0.00 0.00 0.00 0.00 0.00 0.00 0.00 0.00 0.00 0.01 0.00 0.01 0.01 0.00
0.13 0.16 0.20 0.22 0.26 0.54 1.14 1.70 0.92 0.63 0.21 0.34 0.17 0.05 0.01 0.00 0.00 0.00 0.00 0.00 0.00 0.00 0.00 0.00 0.00 0.00 0.00 0.00 0.00 0.00 0.00 0.00 0.00 0.00 0.00 0.00 0.00 0.00 0.00 0.00 0.00 0.01 0.03 0.00
0.13 0.13 0.23 0.35 0.41 0.63 1.40 2.17 1.32 1.31 1.01 0.14 0.02 0.03 0.02 0.00 0.00 0.00 0.00 0.00 0.00 0.00 0.02 0.00 0.00 0.00 0.00 0.00 0.00 0.00 0.01 0.01 0.02 0.04 0.00 0.00 0.00 0.00 0.00 0.00 0.00 0.00 0.00 0.00
0.13 0.20 0.21 0.34 0.58 0.81 2.04 3.07 1.27 0.55 0.71 0.29 0.02 0.01 0.01 0.00 0.00 0.00 0.00 0.01 0.01 0.00 0.02 0.02 0.02 0.02 0.02 0.02 0.01 0.01 0.04 0.02 0.00 0.00 0.00 0.00 0.00 0.00 0.00 0.00 0.00 0.00 0.00 0.00
0.12 0.17 0.33 0.35 0.56 1.19 2.97 3.19 0.66 0.17 0.12 0.04 0.07 0.06 0.04 0.00 0.00 0.00 0.00 0.01 0.00 0.00 0.00 0.01 0.03 0.08 0.07 0.10 0.05 0.03 0.05 0.05 0.01 0.00 0.00 0.00 0.00 0.00 0.00 0.00 0.00 0.00 0.00 0.00
0.18 0.19 0.32 0.45 0.51 1.43 3.88 2.77 0.44 0.19 0.15 0.08 0.20 0.12 0.02 0.01 0.00 0.00 0.00 0.00 0.00 0.01 0.01 0.06 0.10 0.07 0.07 0.10 0.11 0.12 0.10 0.12 0.05 0.02 0.00 0.01 0.01 0.00 0.00 0.00 0.00 0.00 0.00 0.00
0.25 0.26 0.35 0.50 0.62 1.09 2.30 1.88 0.45 0.47 0.56 0.21 0.08 0.03 0.01 0.00 0.00 0.00 0.00 0.00 0.00 0.00 0.00 0.07 0.24 0.21 0.09 0.10 0.10 0.17 0.20 0.13 0.17 0.09 0.02 0.09 0.03 0.00 0.00 0.00 0.00 0.00 0.00 0.00
0.37 0.32 0.42 0.50 0.67 0.74 1.01 1.01 0.63 0.43 0.42 0.15 0.09 0.03 0.01 0.01 0.01 0.00 0.00 0.00 0.00 0.00 0.00 0.12 0.17 0.22 0.21 0.11 0.16 0.17 0.17 0.23 0.30 0.14 0.07 0.05 0.00 0.00 0.00 0.00 0.00 0.00 0.00 0.00
0.35 0.44 0.46 0.49 0.60 0.78 0.96 0.80 0.62 0.86 0.63 0.29 0.05 0.06 0.04 0.04 0.06 0.06 0.01 0.00 0.02 0.00 0.02 0.14 0.14 0.11 0.12 0.12 0.14 0.18 0.34 0.33 0.34 0.25 0.13 0.04 0.00 0.00 0.00 0.00 0.00 0.00 0.00 0.00
0.28 0.45 0.52 0.50 0.52 0.82 0.98 0.94 0.45 0.86 1.26 0.31 0.11 0.14 0.09 0.03 0.06 0.11 0.02 0.05 0.10 0.04 0.08 0.08 0.07 0.05 0.02 0.02 0.05 0.10 0.24 0.40 0.37 0.33 0.26 0.04 0.00 0.00 0.01 0.03 0.02 0.00 0.00 0.00
0.23 0.36 0.51 0.55 0.58 0.78 1.07 0.90 0.38 0.50 1.03 0.52 0.24 0.23 0.23 0.07 0.09 0.11 0.04 0.26 0.26 0.23 0.14 0.04 0.01 0.01 0.01 0.00 0.00 0.02 0.07 0.16 0.21 0.30 0.31 0.12 0.04 0.08 0.07 0.02 0.01 0.00 0.00 0.00
0.27 0.31 0.38 0.51 0.56 0.79 1.06 1.05 0.50 0.38 0.79 0.69 0.35 0.22 0.26 0.13 0.03 0.04 0.06 0.09 0.08 0.10 0.15 0.03 0.01 0.02 0.01 0.00 0.00 0.00 0.03 0.04 0.07 0.07 0.06 0.04 0.04 0.09 0.09 0.04 0.03 0.01 0.00 0.00
0.33 0.35 0.35 0.51 0.63 0.77 1.17 1.03 0.52 0.69 1.04 0.58 0.47 0.41 0.16 0.17 0.09 0.08 0.17 0.06 0.02 0.07 0.06 0.08 0.07 0.03 0.00 0.01 0.00 0.00 0.00 0.00 0.01 0.03 0.01 0.01 0.03 0.04 0.02 0.01 0.01 0.01 0.01 0.01
0.38 0.41 0.51 0.73 0.77 0.84 1.07 0.92 0.49 0.38 0.43 0.54 0.29 0.22 0.15 0.11 0.08 0.11 0.17 0.12 0.08 0.15 0.19 0.15 0.17 0.08 0.02 0.00 0.00 0.00 0.00 0.01 0.01 0.03 0.00 0.00 0.00 0.04 0.07 0.05 0.02 0.01 0.01 0.01
0.39 0.47 0.70 1.03 0.90 0.77 0.90 0.79 0.46 0.18 0.17 0.26 0.14 0.08 0.14 0.19 0.14 0.12 0.16 0.23 0.29 0.40 0.63 0.37 0.09 0.02 0.04 0.05 0.08 0.02 0.01 0.02 0.04 0.02 0.03 0.02 0.01 0.00 0.01 0.01 0.02 0.02 0.00 0.00
0.43 0.56 0.89 0.86 0.60 0.79 1.38 1.85 1.11 0.26 0.19 0.20 0.12 0.06 0.04 0.14 0.16 0.14 0.16 0.26 0.44 0.49 0.65 0.55 0.15 0.07 0.10 0.04 0.01 0.02 0.04 0.04 0.03 0.01 0.01 0.01 0.01 0.00 0.00 0.01 0.02 0.02 0.02 0.01
0.53 0.69 0.61 0.51 0.46 0.83 0.76 0.77 0.47 0.15 0.18 0.28 0.26 0.10 0.13 0.15 0.31 0.24 0.18 0.24 0.48 0.58 0.76 0.67 0.37 0.13 0.31 0.25 0.18 0.07 0.04 0.04 0.04 0.03 0.04 0.04 0.03 0.02 0.02 0.02 0.02 0.02 0.01 0.01
0.60 0.74 0.65 0.53 0.57 0.58 0.38 0.11 0.01 0.06 0.23 0.24 0.47 0.13 0.31 0.22 0.36 0.40 0.26 0.36 0.47 0.46 0.55 0.49 0.36 0.32 0.49 0.47 0.12 0.05 0.02 0.02 0.03 0.04 0.04 0.02 0.02 0.02 0.02 0.02 0.02 0.01 0.01 0.01
0.77 0.58 0.47 0.66 0.64 0.63 0.62 0.13 0.06 0.17 0.28 0.26 0.30 0.23 0.51 0.34 0.44 0.42 0.39 0.29 0.46 0.38 0.37 0.29 0.38 0.50 0.83 0.50 0.22 0.08 0.03 0.02 0.01 0.01 0.04 0.07 0.09 0.10 0.10 0.09 0.08 0.09 0.07 0.02
0.31 0.31 0.50 0.81 0.50 0.47 0.44 0.49 0.55 0.54 0.39 0.18 0.16 0.22 0.36 0.64 0.58 0.41 0.43 0.44 0.30 0.25 0.24 0.37 0.55 0.48 0.23 0.07 0.06 0.11 0.16 0.15 0.10 0.07 0.06 0.07 0.09 0.11 0.15 0.17 0.17 0.15 0.13 0.09
0.12 0.19 0.49 0.75 0.49 0.34 0.48 0.54 0.41 0.38 0.32 0.08 0.08 0.11 0.20 0.48 0.68 0.39 0.32 0.55 0.48 0.23 0.21 0.37 0.48 0.44 0.28 0.09 0.02 0.01 0.02 0.05 0.08 0.10 0.10 0.09 0.09 0.10 0.11 0.10 0.08 0.05 0.04 0.04
0.07 0.18 0.41 0.34 0.20 0.31 0.25 0.17 0.14 0.13 0.20 0.12 0.10 0.13 0.19 0.37 0.80 0.59 0.36 0.50 0.48 0.58 0.42 0.44 0.45 0.29 0.14 0.08 0.05 0.04 0.04 0.03 0.03 0.04 0.05 0.08 0.12 0.13 0.13 0.12 0.11 0.12 0.13 0.18
0.16 0.17 0.14 0.12 0.08 0.08 0.09 0.11 0.16 0.27 0.44 0.30 0.17 0.18 0.45 0.41 0.66 1.00 0.56 0.36 0.47 0.62 0.62 0.55 0.41 0.25 0.16 0.17 0.16 0.16 0.14 0.14 0.13 0.15 0.14 0.12 0.13 0.15 0.16 0.21 0.32 0.36 0.43 0.60
0.18 0.07 0.03 0.04 0.05 0.10 0.16 0.15 0.18 0.25 0.36 0.34 0.25 0.21 0.26 0.44 0.82 1.39 0.91 0.63 0.31 0.42 0.44 0.28 0.28 0.33 0.32 0.34 0.37 0.39 0.47 0.50 0.48 0.50 0.47 0.48 0.49 0.53 0.58 0.60 0.67 0.55 0.63 0.79
0.04 0.01 0.10 0.10 0.22 0.14 0.14 0.15 0.18 0.29 0.54 0.50 0.46 0.42 0.35 0.43 0.63 0.66 0.52 0.29 0.18 0.14 0.23 0.30 0.39 0.41 0.35 0.38 0.40 0.40 0.42 0.44 0.47 0.52 0.49 0.56 0.58 0.49 0.61 0.67 0.61 0.47 0.48 0.48
0.00 0.09 0.19 0.13 0.19 0.17 0.18 0.22 0.28 0.36 0.55 0.58 0.49 0.36 0.29 0.32 0.30 0.30 0.33 0.16 0.17 0.24 0.29 0.42 0.47 0.46 0.50 0.55 0.56 0.59 0.59 0.53 0.50 0.48 0.44 0.43 0.42 0.36 0.40 0.40 0.36 0.37 0.29 0.31
0.13 0.24 0.33 0.34 0.31 0.37 0.47 0.48 0.43 0.44 0.42 0.34 0.19 0.14 0.22 0.22 0.12 0.20 0.24 0.39 0.43 0.41 0.42 0.47 0.50 0.51 0.58 0.58 0.54 0.55 0.47 0.39 0.38 0.37 0.35 0.34 0.32 0.23 0.14 0.19 0.29 0.21 0.19 0.17

GFSNW_prec_precacc24_075.txt.gz
Total_Precipitation_Accumulation
0.07 0.07 0.09 0.11 0.16 0.25 0.67 1.19 0.87 0.20 0.18 0.51 0.38 0.15 0.02 0.00 0.00 0.00 0.00 0.00 0.00 0.00 0.00 0.00 0.01 0.01 0.00 0.00 0.00 0.00 0.00 0.00 0.01 0.00 0.00 0.00 0.00 0.00 0.00 0.01 0.01 0.01 0.01 0.00
0.12 0.14 0.16 0.17 0.20 0.44 1.01 1.56 0.85 0.53 0.33 0.35 0.18 0.11 0.04 0.01 0.00 0.00 0.00 0.00 0.00 0.00 0.00 0.00 0.00 0.00 0.00 0.00 0.00 0.00 0.00 0.00 0.00 0.00 0.00 0.00 0.00 0.00 0.00 0.00 0.00 0.02 0.04 0.01
0.07 0.10 0.19 0.27 0.32 0.54 1.34 2.07 1.18 1.10 1.03 0.30 0.08 0.07 0.07 0.03 0.00 0.00 0.00 0.00 0.00 0.00 0.02 0.00 0.00 0.00 0.00 0.00 0.00 0.00 0.01 0.02 0.03 0.06 0.01 0.00 0.00 0.00 0.00 0.00 0.00 0.00 0.00 0.00
0.07 0.08 0.11 0.20 0.37 0.66 1.84 2.80 1.17 0.43 0.71 0.36 0.13 0.08 0.09 0.03 0.02 0.00 0.00 0.00 0.01 0.00 0.02 0.01 0.02 0.02 0.02 0.02 0.01 0.01 0.05 0.03 0.01 0.02 0.01 0.00 0.00 0.00 0.00 0.00 0.00 0.00 0.00 0.00
0.10 0.09 0.10 0.15 0.30 0.90 2.57 2.84 0.65 0.20 0.15 0.11 0.18 0.21 0.22 0.04 0.01 0.02 0.02 0.00 0.01 0.01 0.01 0.01 0.03 0.08 0.07 0.10 0.05 0.03 0.05 0.05 0.01 0.00 0.00 0.00 0.00 0.00 0.00 0.00 0.00 0.00 0.00 0.00
0.14 0.14 0.12 0.12 0.22 1.03 3.04 2.51 0.48 0.26 0.18 0.08 0.29 0.25 0.12 0.09 0.05 0.05 0.01 0.00 0.02 0.02 0.02 0.05 0.09 0.07 0.07 0.10 0.11 0.12 0.10 0.13 0.06 0.02 0.00 0.01 0.01 0.00 0.00 0.00 0.00 0.00 0.00 0.00
0.22 0.20 0.18 0.19 0.27 0.74 1.76 1.73 0.50 0.52 0.57 0.20 0.10 0.08 0.10 0.06 0.04 0.06 0.04 0.01 0.02 0.02 0.00 0.07 0.24 0.21 0.09 0.10 0.10 0.17 0.20 0.14 0.19 0.10 0.02 0.09 0.03 0.00 0.00 0.00 0.00 0.00 0.00 0.00
0.27 0.27 0.25 0.24 0.34 0.53 0.95 1.04 0.73 0.52 0.42 0.14 0.11 0.11 0.09 0.05 0.06 0.06 0.08 0.05 0.01 0.03 0.02 0.16 0.21 0.23 0.21 0.10 0.16 0.17 0.17 0.23 0.31 0.14 0.07 0.05 0.00 0.00 0.00 0.00 0.00 0.00 0.00 0.00
0.21 0.25 0.29 0.29 0.38 0.60 0.98 0.86 0.69 0.98 0.80 0.31 0.04 0.06 0.10 0.12 0.11 0.10 0.05 0.08 0.05 0.05 0.08 0.21 0.19 0.15 0.13 0.12 0.14 0.18 0.34 0.33 0.32 0.26 0.14 0.04 0.00 0.00 0.00 0.00 0.00 0.00 0.00 0.00
0.17 0.24 0.35 0.36 0.39 0.69 1.04 1.08 0.48 0.91 1.33 0.35 0.11 0.12 0.08 0.07 0.12 0.19 0.09 0.13 0.15 0.17 0.21 0.15 0.11 0.09 0.03 0.04 0.08 0.12 0.25 0.41 0.38 0.33 0.28 0.05 0.00 0.00 0.02 0.03 0.03 0.00 0.00 0.00
0.12 0.17 0.36 0.43 0.47 0.64 1.19 1.14 0.40 0.50 1.03 0.45 0.16 0.16 0.17 0.09 0.10 0.18 0.19 0.36 0.39 0.43 0.30 0.11 0.06 0.04 0.03 0.00 0.03 0.05 0.09 0.17 0.22 0.31 0.32 0.13 0.04 0.09 0.10 0.05 0.01 0.00 0.00 0.00
0.11 0.16 0.25 0.38 0.45 0.67 1.21 1.37 0.60 0.38 0.80 0.59 0.29 0.18 0.20 0.16 0.12 0.18 0.23 0.16 0.12 0.13 0.22 0.08 0.06 0.04 0.02 0.01 0.01 0.02 0.07 0.02 0.06 0.06 0.06 0.04 0.04 0.13 0.10 0.04 0.03 0.01 0.00 0.00
0.20 0.23 0.23 0.34 0.40 0.69 1.36 1.31 0.62 0.78 1.28 0.66 0.38 0.30 0.11 0.12 0.13 0.17 0.22 0.11 0.10 0.12 0.11 0.18 0.15 0.09 0.02 0.02 0.00 0.00 0.00 0.00 0.04 0.05 0.02 0.02 0.03 0.04 0.02 0.01 0.01 0.01 0.01 0.01
0.24 0.28 0.34 0.43 0.46 0.72 1.37 1.26 0.62 0.47 0.60 0.62 0.27 0.11 0.09 0.06 0.08 0.14 0.17 0.14 0.14 0.23 0.27 0.22 0.25 0.12 0.03 0.02 0.00 0.00 0.00 0.00 0.01 0.02 0.00 0.00 0.00 0.04 0.07 0.05 0.02 0.01 0.01 0.01
0.21 0.25 0.45 0.65 0.63 0.88 1.23 1.06 0.61 0.23 0.22 0.33 0.16 0.05 0.02 0.03 0.08 0.10 0.22 0.28 0.35 0.53 0.77 0.50 0.14 0.06 0.08 0.08 0.10 0.03 0.01 0.02 0.04 0.03 0.04 0.02 0.01 0.00 0.01 0.01 0.02 0.02 0.00 0.00
0.23 0.29 0.60 0.67 0.73 1.14 1.82 2.42 1.53 0.40 0.28 0.29 0.19 0.06 0.02 0.02 0.04 0.09 0.16 0.28 0.53 0.71 0.83 0.64 0.22 0.13 0.18 0.12 0.04 0.03 0.06 0.04 0.03 0.02 0.01 0.01 0.01 0.00 0.00 0.01 0.02 0.02 0.02 0.01
0.34 0.49 0.55 0.72 0.76 1.01 0.94 0.91 0.65 0.33 0.28 0.37 0.27 0.11 0.11 0.10 0.12 0.12 0.16 0.30 0.64 0.75 0.93 0.76 0.41 0.18 0.39 0.32 0.21 0.11 0.04 0.04 0.04 0.03 0.04 0.04 0.03 0.02 0.02 0.02 0.02 0.02 0.01 0.01
0.58 0.73 0.79 0.86 0.76 0.78 0.60 0.13 0.02 0.08 0.32 0.31 0.46 0.12 0.23 0.13 0.14 0.16 0.18 0.36 0.54 0.53 0.62 0.56 0.40 0.39 0.59 0.60 0.15 0.05 0.02 0.02 0.03 0.03 0.04 0.02 0.02 0.02 0.02 0.02 0.02 0.01 0.01 0.01
0.81 0.77 0.98 1.20 0.95 0.96 0.76 0.15 0.11 0.23 0.34 0.25 0.29 0.20 0.38 0.19 0.18 0.15 0.27 0.24 0.42 0.38 0.43 0.31 0.39 0.56 0.91 0.57 0.23 0.08 0.03 0.02 0.01 0.01 0.04 0.07 0.09 0.11 0.11 0.10 0.09 0.10 0.09 0.09
0.52 0.68 0.91 1.23 0.85 0.63 0.48 0.69 0.80 0.71 0.36 0.14 0.11 0.19 0.36 0.53 0.49 0.36 0.44 0.32 0.31 0.25 0.27 0.38 0.59 0.54 0.25 0.08 0.06 0.12 0.16 0.15 0.10 0.07 0.06 0.07 0.10 0.11 0.16 0.20 0.22 0.22 0.23 0.24
0.20 0.33 0.72 1.10 0.78 0.41 0.47 0.57 0.44 0.39 0.24 0.05 0.07 0.09 0.12 0.44 0.64 0.38 0.35 0.43 0.23 0.18 0.22 0.37 0.51 0.46 0.31 0.09 0.02 0.01 0.02 0.04 0.08 0.11 0.11 0.10 0.10 0.11 0.13 0.13 0.12 0.13 0.15 0.17
0.02 0.16 0.58 0.52 0.31 0.36 0.27 0.19 0.16 0.13 0.17 0.07 0.07 0.11 0.13 0.35 0.76 0.52 0.36 0.56 0.42 0.29 0.23 0.33 0.38 0.25 0.12 0.07 0.05 0.05 0.04 0.03 0.04 0.04 0.05 0.08 0.09 0.10 0.11 0.12 0.13 0.13 0.13 0.14
0.03 0.03 0.07 0.10 0.11 0.10 0.10 0.11 0.11 0.14 0.13 0.12 0.10 0.16 0.44 0.47 0.81 0.93 0.56 0.38 0.57 0.53 0.40 0.31 0.26 0.17 0.09 0.08 0.05 0.06 0.06 0.07 0.08 0.11 0.12 0.11 0.13 0.14 0.15 0.17 0.22 0.20 0.21 0.34
0.00 0.01 0.02 0.04 0.04 0.08 0.14 0.13 0.14 0.13 0.13 0.16 0.10 0.09 0.15 0.38 0.75 1.29 0.85 0.57 0.28 0.36 0.35 0.20 0.21 0.20 0.19 0.16 0.14 0.12 0.17 0.18 0.18 0.23 0.23 0.26 0.27 0.33 0.36 0.39 0.45 0.35 0.43 0.57
0.00 0.00 0.04 0.06 0.17 0.10 0.11 0.10 0.14 0.16 0.17 0.17 0.19 0.17 0.11 0.30 0.47 0.59 0.46 0.25 0.15 0.12 0.20 0.26 0.34 0.30 0.27 0.30 0.30 0.29 0.30 0.29 0.30 0.33 0.29 0.35 0.35 0.27 0.37 0.46 0.44 0.34 0.37 0.38
0.00 0.04 0.07 0.05 0.07 0.07 0.06 0.07 0.09 0.11 0.15 0.18 0.21 0.15 0.09 0.21 0.26 0.28 0.31 0.16 0.15 0.22 0.27 0.38 0.38 0.38 0.43 0.47 0.46 0.47 0.46 0.42 0.41 0.40 0.37 0.35 0.33 0.30 0.34 0.34 0.31 0.33 0.27 0.28
0.06 0.10 0.12 0.10 0.10 0.14 0.23 0.21 0.14 0.14 0.12 0.13 0.08 0.10 0.17 0.17 0.11 0.19 0.25 0.40 0.43 0.40 0.41 0.43 0.43 0.45 0.49 0.48 0.44 0.44 0.40 0.36 0.35 0.33 0.31 0.31 0.32 0.24 0.16 0.20 0.30 0.22 0.19 0.16